Zacatecas Airport, Mexico

6:03 AM CST on December 13, 2017 (GMT -0600)
Gen Leobardo C Ruiz International

Weather History for MMZC - November, 2011

Change the Weather History Date:

Monday, November 21, 2011

  Actual Average Record
Temperature  
Mean Temperature 62 °F -  
Max Temperature 78 °F 69 °F 78 °F (1996)
Min Temperature 46 °F 35 °F 26 °F (2002)
Degree Days  
Heating Degree Days 3    
Growing Degree Days 12 (Base 50)    
Moisture  
Dew Point 38 °F    
Average Humidity 44    
Maximum Humidity 62    
Minimum Humidity 24    
Precipitation  
Precipitation 0.00 in - - ()
Sea Level Pressure  
Sea Level Pressure 30.31 in    
Wind  
Wind Speed 7 mph ()    
Max Wind Speed 21 mph    
Max Gust Speed 23 mph    
Visibility 9.5 miles    
Events      
Averages and records for this station are not official NWS values.
T = Trace of Precipitation, MM = Missing Value Source: Averaged Metar Reports

Daily Weather History Graph

Daily Weather History Graph

Search for Another Location

Airport or City:

Trip Planner

Search our weather history database for the weather conditions in past years. The results will help you decide how hot, cold, wet, or windy it might be!

Date:

Astronomy

Nov. 21, 2011 Rise Set
Actual Time 7:07 AM CST 6:05 PM CST
Civil Twilight 6:43 AM CST 6:29 PM CST
Nautical Twilight 6:16 AM CST 6:56 PM CST
Astronomical Twilight 5:49 AM CST 7:23 PM CST
Moon 3:12 AM CST (11/21) 3:09 PM CST (11/21)
Length of Visible Light 11h 45m
Length of Day
10h 57m
Waning Crescent, 17% of the Moon is Illuminated
Nov 21
Waning Crescent
Nov 25
New
Dec 2
First Quarter
Dec 10
Full
Dec 17
Last Quarter

Hourly Weather History & Observations

Time (CST) Temp. Windchill Dew Point Humidity Pressure Visibility Wind Dir Wind Speed Gust Speed Precip Events Conditions
1:10 AM 48.2 °F - 32.0 °F 54% 30.32 in 10.0 mi SSW 8.1 mph - N/A   Clear
3:38 AM 46.4 °F 44.3 °F 32.0 °F 57% 30.30 in 10.0 mi South 4.6 mph - N/A   Clear
4:39 AM 46.4 °F 44.3 °F 32.0 °F 57% 30.31 in 10.0 mi South 4.6 mph - N/A   Clear
5:48 AM 46.4 °F 44.3 °F 32.0 °F 57% 30.32 in 10.0 mi South 4.6 mph - N/A   Partly Cloudy
6:51 AM 46.4 °F 43.5 °F 33.8 °F 62% 30.35 in 10.0 mi SSW 5.8 mph - N/A   Partly Cloudy
7:41 AM 51.8 °F - 35.6 °F 54% 30.37 in 8.0 mi SSW 6.9 mph - N/A   Mostly Cloudy
8:55 AM 57.2 °F - 39.2 °F 51% 30.38 in 8.0 mi SSW 5.8 mph - N/A   Mostly Cloudy
9:57 AM 66.2 °F - 44.6 °F 46% 30.39 in 8.0 mi SW 8.1 mph - N/A   Scattered Clouds
10:42 AM 69.8 °F - 44.6 °F 40% 30.39 in 8.0 mi SSW 5.8 mph - N/A   Scattered Clouds
11:42 AM 73.4 °F - 42.8 °F 33% 30.36 in 8.0 mi WSW 10.4 mph - N/A   Mostly Cloudy
12:47 PM 75.2 °F - 41.0 °F 29% 30.32 in 10.0 mi SW 11.5 mph 23.0 mph N/A   Scattered Clouds
1:45 PM 75.2 °F - 41.0 °F 29% 30.28 in 10.0 mi SW 17.3 mph - N/A   Scattered Clouds
2:40 PM 78.8 °F - 39.2 °F 24% 30.25 in 10.0 mi WSW 20.7 mph - N/A   Scattered Clouds
3:40 PM 75.2 °F - 37.4 °F 25% 30.23 in 10.0 mi SW 18.4 mph - N/A   Scattered Clouds
4:40 PM 75.2 °F - 39.2 °F 27% 30.24 in 10.0 mi SW 10.4 mph - N/A   Scattered Clouds
5:41 PM 71.6 °F - 37.4 °F 29% 30.25 in 10.0 mi West 8.1 mph - N/A   Mostly Cloudy
7:41 PM 62.6 °F - 37.4 °F 39% 30.28 in 10.0 mi West 9.2 mph - N/A   Mostly Cloudy
8:40 PM 60.8 °F - 37.4 °F 42% 30.30 in 10.0 mi WSW 4.6 mph - N/A   Mostly Cloudy
9:41 PM 60.8 °F - 41.0 °F 48% 30.31 in 10.0 mi West 11.5 mph - N/A   Mostly Cloudy
10:42 PM 60.8 °F - 42.8 °F 52% 30.32 in 10.0 mi West 10.4 mph - N/A   Scattered Clouds
11:42 PM 57.2 °F - 42.8 °F 59% 30.33 in 10.0 mi SSW 8.1 mph - N/A   Scattered Clouds